EUTELSAT 36B

Last updated on Sun Jun 21 2026 00:03:04 GMT+0000 (Coordinated Universal Time)

1 36101U 09065A 26171.40203720 .00000108 00000+0 00000+0 0 9993 2 36101 0.5002 81.1638 0005548 5.9114 16.7617 1.00269534 60744
UTC large
Height (km)
Speed (km/s)
/
Latitude / Longitude
Inclination (degrees)
Orbital Period (minutes)
Azimuth
Elevation
Range (km)
Doppler Factor

Next 0 passes for location: London (51.5072 / 0.1276)

No passes found over London.
EUTELSAT 36B